Wetterdaten: Dienstag, 19.02.2013
Datum Zeit Temp. I. Temp. A. Boden 5 cm Feuchte A. Sonne Luftdruck Regen Wind Sonnenschein
19.02.2013 00:00 21,1 C -0,5 C -1,0 C 82 % 0 % 1012 hPa 0,0 l/m 0,0 km/h (0 Bft) 0 min
19.02.2013 00:03 21,1 C -0,5 C -1,0 C 82 % 0 % 1012 hPa 0,0 l/m 2,6 km/h (1 Bft) 0 min
19.02.2013 00:06 21,1 C -0,5 C -1,0 C 82 % 0 % 1012 hPa 0,0 l/m 2,6 km/h (1 Bft) 0 min
19.02.2013 00:09 21,1 C -0,5 C -1,2 C 82 % 0 % 1012 hPa 0,0 l/m 0,0 km/h (0 Bft) 0 min
19.02.2013 00:12 21,0 C -0,5 C -1,2 C 83 % 0 % 1012 hPa 0,0 l/m 0,0 km/h (0 Bft) 0 min
19.02.2013 00:15 21,1 C -0,5 C -1,1 C 83 % 0 % 1012 hPa 0,0 l/m 0,3 km/h (0 Bft) 0 min
19.02.2013 00:18 21,1 C -0,5 C -0,9 C 82 % 0 % 1012 hPa 0,0 l/m 0,0 km/h (0 Bft) 0 min
19.02.2013 00:21 21,1 C -0,5 C -0,8 C 82 % 0 % 1012 hPa 0,0 l/m 3,5 km/h (1 Bft) 0 min
19.02.2013 00:24 21,0 C -0,5 C -0,9 C 82 % 0 % 1012 hPa 0,0 l/m 2,1 km/h (1 Bft) 0 min
19.02.2013 00:27 21,0 C -0,5 C -0,9 C 82 % 0 % 1012 hPa 0,0 l/m 3,9 km/h (1 Bft) 0 min
19.02.2013 00:30 21,0 C -0,5 C -1,0 C 82 % 0 % 1012 hPa 0,0 l/m 0,0 km/h (0 Bft) 0 min
19.02.2013 00:33 21,0 C -0,5 C -1,1 C 82 % 0 % 1012 hPa 0,0 l/m 0,0 km/h (0 Bft) 0 min
19.02.2013 00:36 21,0 C -0,5 C -1,0 C 82 % 0 % 1012 hPa 0,0 l/m 0,3 km/h (0 Bft) 0 min
19.02.2013 00:39 21,0 C -0,6 C -1,0 C 82 % 0 % 1012 hPa 0,0 l/m 2,8 km/h (1 Bft) 0 min
19.02.2013 00:42 21,0 C -0,6 C -1,0 C 83 % 0 % 1012 hPa 0,0 l/m 0,4 km/h (0 Bft) 0 min
19.02.2013 00:45 21,0 C -0,6 C -1,1 C 83 % 0 % 1012 hPa 0,0 l/m 0,0 km/h (0 Bft) 0 min
19.02.2013 00:48 21,0 C -0,6 C -1,1 C 83 % 0 % 1012 hPa 0,0 l/m 0,0 km/h (0 Bft) 0 min
19.02.2013 00:51 21,0 C -0,6 C -1,1 C 83 % 0 % 1012 hPa 0,0 l/m 0,0 km/h (0 Bft) 0 min
19.02.2013 00:54 21,0 C -0,6 C -1,1 C 83 % 0 % 1012 hPa 0,0 l/m 0,0 km/h (0 Bft) 0 min
19.02.2013 00:57 21,0 C -0,6 C -1,2 C 83 % 0 % 1012 hPa 0,0 l/m 0,0 km/h (0 Bft) 0 min
19.02.2013 01:00 21,0 C -0,6 C -1,1 C 83 % 0 % 1012 hPa 0,0 l/m 0,0 km/h (0 Bft) 0 min
19.02.2013 01:03 21,0 C -0,6 C -1,1 C 83 % 0 % 1012 hPa 0,0 l/m 0,0 km/h (0 Bft) 0 min
19.02.2013 01:06 21,0 C -0,6 C -1,1 C 83 % 0 % 1012 hPa 0,0 l/m 1,3 km/h (1 Bft) 0 min
19.02.2013 01:09 21,0 C -0,6 C -0,9 C 83 % 0 % 1012 hPa 0,0 l/m 0,9 km/h (0 Bft) 0 min
19.02.2013 01:12 21,0 C -0,6 C -1,1 C 83 % 0 % 1012 hPa 0,0 l/m 1,7 km/h (1 Bft) 0 min
19.02.2013 01:15 21,0 C -0,6 C -1,1 C 83 % 0 % 1012 hPa 0,0 l/m 0,0 km/h (0 Bft) 0 min
19.02.2013 01:18 21,0 C -0,6 C -1,1 C 83 % 0 % 1012 hPa 0,0 l/m 0,0 km/h (0 Bft) 0 min
19.02.2013 01:21 21,0 C -0,6 C -1,1 C 83 % 0 % 1012 hPa 0,0 l/m 0,0 km/h (0 Bft) 0 min
19.02.2013 01:24 21,0 C -0,6 C -1,1 C 83 % 0 % 1012 hPa 0,0 l/m 0,0 km/h (0 Bft) 0 min
19.02.2013 01:27 21,0 C -0,6 C -1,2 C 100 % 0 % 1012 hPa 0,0 l/m 2,1 km/h (1 Bft) 0 min
19.02.2013 01:30 21,0 C -0,6 C -1,0 C 83 % 0 % 1012 hPa 0,0 l/m 0,0 km/h (0 Bft) 0 min
19.02.2013 01:33 21,0 C -0,6 C -1,0 C 83 % 0 % 1012 hPa 0,0 l/m 1,2 km/h (1 Bft) 0 min
19.02.2013 01:36 21,0 C -0,6 C -1,0 C 83 % 0 % 1012 hPa 0,0 l/m 0,0 km/h (0 Bft) 0 min
19.02.2013 01:39 21,0 C -0,6 C -1,1 C 83 % 0 % 1012 hPa 0,0 l/m 0,0 km/h (0 Bft) 0 min
19.02.2013 01:42 21,0 C -0,6 C -1,2 C 83 % 0 % 1012 hPa 0,0 l/m 0,0 km/h (0 Bft) 0 min
19.02.2013 01:45 21,0 C -0,6 C -1,3 C 83 % 0 % 1012 hPa 0,0 l/m 0,0 km/h (0 Bft) 0 min
19.02.2013 01:48 21,0 C -0,6 C -1,2 C 83 % 0 % 1012 hPa 0,0 l/m 0,0 km/h (0 Bft) 0 min
19.02.2013 01:51 20,9 C -0,6 C -1,2 C 83 % 0 % 1012 hPa 0,0 l/m 0,3 km/h (0 Bft) 0 min
19.02.2013 01:55 21,0 C -0,6 C -1,3 C 83 % 0 % 1012 hPa 0,0 l/m 0,0 km/h (0 Bft) 0 min
19.02.2013 01:58 21,0 C -0,6 C -1,2 C 83 % 0 % 1012 hPa 0,0 l/m 0,0 km/h (0 Bft) 0 min
19.02.2013 02:01 20,9 C -0,6 C -1,0 C 83 % 0 % 1012 hPa 0,0 l/m 0,0 km/h (0 Bft) 0 min
19.02.2013 02:04 20,9 C -0,6 C -1,0 C 83 % 0 % 1012 hPa 0,0 l/m 0,0 km/h (0 Bft) 0 min
19.02.2013 02:07 20,9 C -0,6 C -1,3 C 83 % 0 % 1012 hPa 0,0 l/m 0,0 km/h (0 Bft) 0 min
19.02.2013 02:10 20,9 C -0,6 C -1,3 C 83 % 0 % 1012 hPa 0,0 l/m 0,0 km/h (0 Bft) 0 min
19.02.2013 02:13 20,9 C -0,6 C -1,2 C 83 % 0 % 1012 hPa 0,0 l/m 0,0 km/h (0 Bft) 0 min
19.02.2013 02:16 20,9 C -0,6 C -1,3 C 83 % 0 % 1012 hPa 0,0 l/m 0,2 km/h (0 Bft) 0 min
19.02.2013 02:19 20,9 C -0,6 C -1,3 C 83 % 0 % 1012 hPa 0,0 l/m 0,0 km/h (0 Bft) 0 min
19.02.2013 02:22 20,9 C -0,6 C -1,3 C 83 % 0 % 1011 hPa 0,0 l/m 0,0 km/h (0 Bft) 0 min
19.02.2013 02:25 20,9 C -0,6 C -1,3 C 83 % 0 % 1011 hPa 0,0 l/m 0,1 km/h (0 Bft) 0 min
19.02.2013 02:28 20,9 C -0,6 C -1,3 C 83 % 0 % 1011 hPa 0,0 l/m 0,0 km/h (0 Bft) 0 min
19.02.2013 02:31 20,9 C -0,6 C -1,1 C 83 % 0 % 1011 hPa 0,0 l/m 0,0 km/h (0 Bft) 0 min
19.02.2013 02:34 20,9 C -0,8 C -1,1 C 83 % 0 % 1011 hPa 0,0 l/m 0,8 km/h (0 Bft) 0 min
19.02.2013 02:37 20,9 C -0,8 C -1,1 C 83 % 0 % 1011 hPa 0,0 l/m 0,6 km/h (0 Bft) 0 min
19.02.2013 02:40 20,9 C -0,8 C -1,0 C 83 % 0 % 1011 hPa 0,0 l/m 0,0 km/h (0 Bft) 0 min
19.02.2013 02:43 20,9 C -0,8 C -1,1 C 83 % 0 % 1011 hPa 0,0 l/m 1,7 km/h (1 Bft) 0 min
19.02.2013 02:46 20,9 C -0,8 C -1,1 C 83 % 0 % 1011 hPa 0,0 l/m 0,7 km/h (0 Bft) 0 min
19.02.2013 02:49 20,9 C -0,8 C -1,0 C 83 % 0 % 1011 hPa 0,0 l/m 3,1 km/h (1 Bft) 0 min
19.02.2013 02:52 20,9 C -0,8 C -1,0 C 83 % 0 % 1011 hPa 0,0 l/m 0,0 km/h (0 Bft) 0 min
19.02.2013 02:56 20,9 C -0,8 C -1,1 C 83 % 0 % 1011 hPa 0,0 l/m 0,0 km/h (0 Bft) 0 min
19.02.2013 02:59 20,9 C -0,8 C -1,1 C 83 % 0 % 1011 hPa 0,0 l/m 0,4 km/h (0 Bft) 0 min
19.02.2013 03:02 20,9 C -0,8 C -0,8 C 83 % 0 % 1011 hPa 0,0 l/m 0,4 km/h (0 Bft) 0 min
19.02.2013 03:05 20,9 C -0,8 C -1,0 C 83 % 0 % 1011 hPa 0,0 l/m 5,9 km/h (2 Bft) 0 min
19.02.2013 03:08 20,9 C -0,8 C -0,8 C 83 % 0 % 1011 hPa 0,0 l/m 5,9 km/h (2 Bft) 0 min
19.02.2013 03:11 20,9 C -0,8 C -0,8 C 83 % 0 % 1011 hPa 0,0 l/m 5,0 km/h (1 Bft) 0 min
19.02.2013 03:14 20,9 C -0,8 C -1,2 C 83 % 0 % 1011 hPa 0,0 l/m 0,1 km/h (0 Bft) 0 min
19.02.2013 03:17 20,9 C -0,8 C -1,2 C 83 % 0 % 1011 hPa 0,0 l/m 0,1 km/h (0 Bft) 0 min
19.02.2013 03:20 20,9 C -0,8 C -1,2 C 83 % 0 % 1011 hPa 0,0 l/m 0,1 km/h (0 Bft) 0 min
19.02.2013 03:23 20,9 C -0,8 C -1,2 C 83 % 0 % 1011 hPa 0,0 l/m 0,1 km/h (0 Bft) 0 min
19.02.2013 03:26 20,9 C -0,8 C -1,2 C 83 % 0 % 1011 hPa 0,0 l/m 0,0 km/h (0 Bft) 0 min
19.02.2013 03:29 20,9 C -0,8 C -1,2 C 83 % 0 % 1011 hPa 0,0 l/m 0,0 km/h (0 Bft) 0 min
19.02.2013 03:32 20,9 C -0,8 C -1,2 C 83 % 0 % 1011 hPa 0,0 l/m 0,0 km/h (0 Bft) 0 min
19.02.2013 03:35 20,8 C -0,8 C -1,2 C 83 % 0 % 1011 hPa 0,0 l/m 0,0 km/h (0 Bft) 0 min
19.02.2013 03:38 20,8 C -0,9 C -1,2 C 83 % 0 % 1011 hPa 0,0 l/m 0,0 km/h (0 Bft) 0 min
19.02.2013 03:41 20,8 C -0,8 C -1,2 C 83 % 0 % 1011 hPa 0,0 l/m 0,2 km/h (0 Bft) 0 min
19.02.2013 03:44 20,8 C -0,8 C -1,1 C 83 % 0 % 1010 hPa 0,0 l/m 2,9 km/h (1 Bft) 0 min
19.02.2013 03:47 20,8 C -0,8 C -1,1 C 83 % 0 % 1010 hPa 0,0 l/m 2,3 km/h (1 Bft) 0 min
19.02.2013 03:50 20,8 C -0,8 C -1,1 C 83 % 0 % 1010 hPa 0,0 l/m 0,3 km/h (0 Bft) 0 min
19.02.2013 03:53 20,8 C -0,8 C -1,1 C 83 % 0 % 1010 hPa 0,0 l/m 1,5 km/h (1 Bft) 0 min
19.02.2013 03:56 20,8 C -0,8 C -1,1 C 83 % 0 % 1011 hPa 0,0 l/m 1,5 km/h (1 Bft) 0 min
19.02.2013 03:59 20,8 C -0,8 C -1,0 C 82 % 0 % 1011 hPa 0,0 l/m 3,6 km/h (1 Bft) 0 min
19.02.2013 04:02 20,8 C -0,8 C -1,0 C 82 % 0 % 1011 hPa 0,0 l/m 2,8 km/h (1 Bft) 0 min
19.02.2013 04:05 20,8 C -0,8 C -1,2 C 82 % 0 % 1011 hPa 0,0 l/m 3,9 km/h (1 Bft) 0 min
19.02.2013 04:08 20,8 C -0,8 C -1,1 C 82 % 0 % 1011 hPa 0,0 l/m 3,8 km/h (1 Bft) 0 min
19.02.2013 04:11 20,8 C -0,8 C -1,0 C 82 % 0 % 1011 hPa 0,0 l/m 3,7 km/h (1 Bft) 0 min
19.02.2013 04:14 20,8 C -0,8 C -1,0 C 82 % 0 % 1011 hPa 0,0 l/m 5,0 km/h (1 Bft) 0 min
19.02.2013 04:17 20,8 C -0,8 C -1,0 C 82 % 0 % 1011 hPa 0,0 l/m 5,0 km/h (1 Bft) 0 min
19.02.2013 04:20 20,8 C -0,8 C -1,2 C 82 % 0 % 1011 hPa 0,0 l/m 2,5 km/h (1 Bft) 0 min
19.02.2013 04:23 20,8 C -0,8 C -1,3 C 82 % 0 % 1010 hPa 0,0 l/m 2,9 km/h (1 Bft) 0 min
19.02.2013 04:26 20,8 C -0,8 C -1,1 C 82 % 0 % 1010 hPa 0,0 l/m 4,6 km/h (1 Bft) 0 min
19.02.2013 04:29 20,8 C -0,8 C -1,0 C 82 % 0 % 1010 hPa 0,0 l/m 5,2 km/h (1 Bft) 0 min
19.02.2013 04:32 20,9 C -0,8 C -1,1 C 82 % 0 % 1010 hPa 0,0 l/m 4,3 km/h (1 Bft) 0 min
19.02.2013 04:35 20,9 C -0,8 C -1,0 C 82 % 0 % 1010 hPa 0,0 l/m 5,1 km/h (1 Bft) 0 min
19.02.2013 04:38 20,9 C -0,8 C -1,0 C 82 % 0 % 1010 hPa 0,0 l/m 5,7 km/h (1 Bft) 0 min
19.02.2013 04:41 21,0 C -0,8 C -0,9 C 82 % 0 % 1010 hPa 0,0 l/m 5,7 km/h (1 Bft) 0 min
19.02.2013 04:44 21,0 C -0,8 C -0,9 C 82 % 0 % 1010 hPa 0,0 l/m 6,2 km/h (2 Bft) 0 min
19.02.2013 04:47 21,0 C -0,8 C -0,9 C 82 % 0 % 1010 hPa 0,0 l/m 5,9 km/h (2 Bft) 0 min
19.02.2013 04:50 21,0 C -0,8 C -1,0 C 82 % 0 % 1010 hPa 0,0 l/m 6,7 km/h (2 Bft) 0 min
19.02.2013 04:53 21,0 C -0,8 C -0,9 C 82 % 0 % 1010 hPa 0,0 l/m 8,3 km/h (2 Bft) 0 min
19.02.2013 04:56 21,0 C -0,8 C -0,8 C 82 % 0 % 1010 hPa 0,0 l/m 8,9 km/h (2 Bft) 0 min
19.02.2013 04:59 21,0 C -0,8 C -0,8 C 82 % 0 % 1010 hPa 0,0 l/m 7,8 km/h (2 Bft) 0 min
19.02.2013 05:02 21,0 C -0,8 C -0,7 C 82 % 0 % 1010 hPa 0,0 l/m 8,6 km/h (2 Bft) 0 min
19.02.2013 05:05 21,0 C -0,8 C -0,8 C 82 % 0 % 1010 hPa 0,0 l/m 8,7 km/h (2 Bft) 0 min
19.02.2013 05:08 21,0 C -0,8 C -0,8 C 82 % 0 % 1010 hPa 0,0 l/m 9,2 km/h (2 Bft) 0 min
19.02.2013 05:11 21,0 C -0,7 C -0,7 C 73 % 0 % 1010 hPa 0,0 l/m 6,8 km/h (2 Bft) 0 min
19.02.2013 05:14 21,0 C -0,7 C -0,7 C 73 % 0 % 1010 hPa 0,0 l/m 10,6 km/h (2 Bft) 0 min
19.02.2013 05:17 21,0 C -0,7 C -0,7 C 73 % 0 % 1010 hPa 0,0 l/m 8,5 km/h (2 Bft) 0 min
19.02.2013 05:20 21,1 C -0,7 C -0,8 C 73 % 0 % 1010 hPa 0,0 l/m 8,9 km/h (2 Bft) 0 min
19.02.2013 05:23 21,1 C -0,7 C -0,7 C 73 % 0 % 1010 hPa 0,0 l/m 8,9 km/h (2 Bft) 0 min
19.02.2013 05:26 21,1 C -0,7 C -0,7 C 73 % 0 % 1010 hPa 0,0 l/m 8,9 km/h (2 Bft) 0 min
19.02.2013 05:29 21,1 C -0,7 C -0,7 C 73 % 0 % 1010 hPa 0,0 l/m 8,2 km/h (2 Bft) 0 min
19.02.2013 05:32 21,1 C -0,7 C -0,8 C 73 % 0 % 1010 hPa 0,0 l/m 7,6 km/h (2 Bft) 0 min
19.02.2013 05:35 21,1 C -0,7 C -0,8 C 73 % 0 % 1010 hPa 0,0 l/m 7,6 km/h (2 Bft) 0 min
19.02.2013 05:38 21,1 C -0,7 C -0,8 C 73 % 0 % 1010 hPa 0,0 l/m 7,4 km/h (2 Bft) 0 min
19.02.2013 05:41 21,1 C -0,7 C -0,9 C 73 % 0 % 1010 hPa 0,0 l/m 7,0 km/h (2 Bft) 0 min
19.02.2013 05:44 21,1 C -0,7 C -1,1 C 73 % 0 % 1010 hPa 0,0 l/m 6,1 km/h (2 Bft) 0 min
19.02.2013 05:47 21,1 C -0,7 C -1,2 C 73 % 0 % 1010 hPa 0,0 l/m 4,8 km/h (1 Bft) 0 min
19.02.2013 05:50 21,1 C -0,7 C -1,0 C 73 % 0 % 1010 hPa 0,0 l/m 6,8 km/h (2 Bft) 0 min
19.02.2013 05:53 21,1 C -0,7 C -0,9 C 73 % 0 % 1010 hPa 0,0 l/m 6,8 km/h (2 Bft) 0 min
19.02.2013 05:56 21,1 C -0,7 C -0,9 C 73 % 0 % 1010 hPa 0,0 l/m 6,3 km/h (2 Bft) 0 min
19.02.2013 05:59 21,1 C -0,7 C -0,9 C 73 % 0 % 1010 hPa 0,0 l/m 8,7 km/h (2 Bft) 0 min
19.02.2013 06:02 21,1 C -0,7 C -0,9 C 73 % 0 % 1010 hPa 0,0 l/m 7,7 km/h (2 Bft) 0 min
19.02.2013 06:05 21,1 C -0,7 C -0,9 C 73 % 0 % 1010 hPa 0,0 l/m 5,8 km/h (2 Bft) 0 min
19.02.2013 06:08 21,1 C -0,7 C -0,9 C 73 % 0 % 1010 hPa 0,0 l/m 6,5 km/h (2 Bft) 0 min
19.02.2013 06:11 21,1 C -0,7 C -0,9 C 73 % 0 % 1010 hPa 0,0 l/m 5,6 km/h (1 Bft) 0 min
19.02.2013 06:14 21,2 C -0,7 C -0,9 C 73 % 0 % 1010 hPa 0,0 l/m 5,9 km/h (2 Bft) 0 min
19.02.2013 06:17 21,2 C -0,7 C -0,9 C 73 % 0 % 1010 hPa 0,0 l/m 8,7 km/h (2 Bft) 0 min
19.02.2013 06:20 21,2 C -0,7 C -0,6 C 73 % 0 % 1010 hPa 0,0 l/m 10,0 km/h (2 Bft) 0 min
19.02.2013 06:23 21,2 C -0,7 C -0,6 C 73 % 0 % 1010 hPa 0,0 l/m 12,8 km/h (3 Bft) 0 min
19.02.2013 06:26 21,3 C -0,7 C -0,7 C 73 % 0 % 1009 hPa 0,0 l/m 9,0 km/h (2 Bft) 0 min
19.02.2013 06:29 21,4 C -0,7 C -0,6 C 73 % 0 % 1009 hPa 0,0 l/m 7,2 km/h (2 Bft) 0 min
19.02.2013 06:32 21,4 C -0,7 C -0,6 C 73 % 0 % 1009 hPa 0,0 l/m 10,5 km/h (2 Bft) 0 min
19.02.2013 06:35 21,4 C -0,7 C -0,7 C 73 % 0 % 1009 hPa 0,0 l/m 10,0 km/h (2 Bft) 0 min
19.02.2013 06:38 21,5 C -0,7 C -0,5 C 73 % 0 % 1010 hPa 0,0 l/m 13,3 km/h (3 Bft) 0 min
19.02.2013 06:41 21,5 C -0,7 C -0,6 C 73 % 0 % 1010 hPa 0,0 l/m 7,5 km/h (2 Bft) 0 min
19.02.2013 06:44 21,6 C -0,7 C -0,6 C 73 % 0 % 1009 hPa 0,0 l/m 7,5 km/h (2 Bft) 0 min
19.02.2013 06:47 21,6 C -0,7 C -0,6 C 73 % 0 % 1009 hPa 0,0 l/m 8,2 km/h (2 Bft) 0 min
19.02.2013 06:50 21,6 C -0,7 C -0,5 C 73 % 0 % 1009 hPa 0,0 l/m 8,7 km/h (2 Bft) 0 min
19.02.2013 06:53 21,6 C -0,7 C -0,6 C 73 % 0 % 1009 hPa 0,0 l/m 6,4 km/h (2 Bft) 0 min
19.02.2013 06:56 21,6 C -0,7 C -0,7 C 73 % 0 % 1009 hPa 0,0 l/m 6,3 km/h (2 Bft) 0 min
19.02.2013 06:59 21,6 C -0,7 C -0,9 C 73 % 0 % 1009 hPa 0,0 l/m 4,4 km/h (1 Bft) 0 min
19.02.2013 07:02 21,6 C -0,7 C -0,8 C 73 % 0 % 1009 hPa 0,0 l/m 9,4 km/h (2 Bft) 0 min
19.02.2013 07:05 17,4 C -0,7 C -0,9 C 73 % 0 % 1010 hPa 0,0 l/m 5,5 km/h (1 Bft) 0 min
19.02.2013 07:08 17,0 C -0,7 C -0,9 C 73 % 0 % 1010 hPa 0,0 l/m 4,1 km/h (1 Bft) 0 min
19.02.2013 07:11 17,0 C -0,7 C -0,9 C 73 % 1 % 1010 hPa 0,0 l/m 3,9 km/h (1 Bft) 0 min
19.02.2013 07:14 18,0 C -0,7 C -0,9 C 73 % 1 % 1010 hPa 0,0 l/m 3,9 km/h (1 Bft) 0 min
19.02.2013 07:17 18,0 C -0,7 C -0,9 C 73 % 1 % 1010 hPa 0,0 l/m 5,4 km/h (1 Bft) 0 min
19.02.2013 07:20 19,0 C -0,7 C -0,9 C 73 % 1 % 1009 hPa 0,0 l/m 6,1 km/h (2 Bft) 0 min
19.02.2013 07:23 19,4 C -0,7 C -0,9 C 73 % 1 % 1009 hPa 0,0 l/m 6,1 km/h (2 Bft) 0 min
19.02.2013 07:26 19,6 C -0,7 C -0,9 C 73 % 1 % 1009 hPa 0,0 l/m 6,1 km/h (2 Bft) 0 min
19.02.2013 07:29 19,8 C -0,7 C -0,9 C 73 % 2 % 1009 hPa 0,0 l/m 4,1 km/h (1 Bft) 0 min
19.02.2013 07:32 20,1 C -0,7 C -0,9 C 73 % 2 % 1009 hPa 0,0 l/m 1,3 km/h (1 Bft) 0 min
19.02.2013 07:35 20,2 C -0,7 C -0,9 C 73 % 2 % 1009 hPa 0,0 l/m 0,1 km/h (0 Bft) 0 min
19.02.2013 07:38 20,3 C -0,7 C -0,9 C 73 % 2 % 1009 hPa 0,0 l/m 0,0 km/h (0 Bft) 0 min
19.02.2013 07:41 20,4 C -0,7 C -0,9 C 73 % 3 % 1009 hPa 0,0 l/m 1,6 km/h (1 Bft) 0 min
19.02.2013 07:44 20,4 C -0,7 C -0,9 C 73 % 3 % 1009 hPa 0,0 l/m 1,7 km/h (1 Bft) 0 min
19.02.2013 07:47 20,5 C -0,7 C -0,9 C 73 % 3 % 1009 hPa 0,0 l/m 0,4 km/h (0 Bft) 0 min
19.02.2013 07:50 20,5 C -0,7 C -0,9 C 73 % 4 % 1009 hPa 0,0 l/m 0,4 km/h (0 Bft) 0 min
19.02.2013 07:53 20,5 C -0,7 C -0,9 C 73 % 4 % 1009 hPa 0,0 l/m 3,8 km/h (1 Bft) 0 min
19.02.2013 07:56 20,6 C -0,7 C -0,7 C 73 % 6 % 1009 hPa 0,0 l/m 3,0 km/h (1 Bft) 0 min
19.02.2013 07:59 20,7 C -0,7 C -0,6 C 73 % 6 % 1009 hPa 0,0 l/m 5,2 km/h (1 Bft) 0 min
19.02.2013 08:02 20,7 C -0,7 C -0,6 C 73 % 7 % 1009 hPa 0,0 l/m 5,9 km/h (2 Bft) 0 min
19.02.2013 08:05 20,7 C -0,7 C -0,6 C 73 % 8 % 1009 hPa 0,0 l/m 0,6 km/h (0 Bft) 0 min
19.02.2013 08:08 20,8 C -0,7 C -0,5 C 73 % 8 % 1009 hPa 0,0 l/m 1,5 km/h (1 Bft) 0 min
19.02.2013 08:11 20,8 C -0,7 C -0,5 C 73 % 8 % 1009 hPa 0,0 l/m 1,9 km/h (1 Bft) 0 min
19.02.2013 08:14 20,7 C -0,7 C -0,5 C 73 % 8 % 1009 hPa 0,0 l/m 3,7 km/h (1 Bft) 0 min
19.02.2013 08:17 20,8 C -0,7 C -0,4 C 73 % 10 % 1009 hPa 0,0 l/m 1,9 km/h (1 Bft) 0 min
19.02.2013 08:20 20,8 C -0,7 C -0,3 C 73 % 12 % 1009 hPa 0,0 l/m 10,5 km/h (2 Bft) 0 min
19.02.2013 08:23 20,8 C -0,7 C -0,3 C 73 % 12 % 1009 hPa 0,0 l/m 6,7 km/h (2 Bft) 0 min
19.02.2013 08:26 20,8 C -0,7 C -0,2 C 73 % 12 % 1009 hPa 0,0 l/m 10,2 km/h (2 Bft) 0 min
19.02.2013 08:29 20,8 C -0,7 C -0,2 C 73 % 13 % 1009 hPa 0,0 l/m 10,9 km/h (2 Bft) 0 min
19.02.2013 08:32 20,8 C -0,7 C -0,2 C 73 % 14 % 1009 hPa 0,0 l/m 9,7 km/h (2 Bft) 0 min
19.02.2013 08:35 20,9 C -0,7 C -0,1 C 73 % 14 % 1009 hPa 0,0 l/m 9,3 km/h (2 Bft) 0 min
19.02.2013 08:38 20,9 C -0,7 C -0,2 C 73 % 12 % 1009 hPa 0,0 l/m 8,3 km/h (2 Bft) 0 min
19.02.2013 08:41 20,8 C -0,7 C -0,2 C 73 % 11 % 1009 hPa 0,0 l/m 8,3 km/h (2 Bft) 0 min
19.02.2013 08:44 20,9 C -0,7 C -0,2 C 73 % 11 % 1009 hPa 0,0 l/m 4,8 km/h (1 Bft) 0 min
19.02.2013 08:47 20,9 C -0,7 C -0,2 C 73 % 12 % 1009 hPa 0,0 l/m 6,5 km/h (2 Bft) 0 min
19.02.2013 08:50 20,9 C -0,7 C -0,1 C 73 % 14 % 1009 hPa 0,0 l/m 1,6 km/h (1 Bft) 0 min
19.02.2013 08:53 20,9 C -0,7 C 0,0 C 73 % 16 % 1009 hPa 0,0 l/m 4,7 km/h (1 Bft) 0 min
19.02.2013 08:56 21,0 C -0,7 C 0,0 C 73 % 16 % 1009 hPa 0,0 l/m 6,9 km/h (2 Bft) 0 min
19.02.2013 08:59 21,0 C -0,7 C 0,0 C 73 % 14 % 1009 hPa 0,0 l/m 9,6 km/h (2 Bft) 0 min
19.02.2013 09:02 21,0 C -0,7 C -0,1 C 73 % 12 % 1009 hPa 0,0 l/m 2,8 km/h (1 Bft) 0 min
19.02.2013 09:05 21,0 C -0,7 C -0,1 C 73 % 12 % 1009 hPa 0,0 l/m 3,6 km/h (1 Bft) 0 min
19.02.2013 09:08 21,0 C -0,7 C -0,2 C 73 % 11 % 1009 hPa 0,0 l/m 3,6 km/h (1 Bft) 0 min
19.02.2013 09:11 21,0 C -0,7 C -0,1 C 73 % 12 % 1009 hPa 0,0 l/m 5,7 km/h (1 Bft) 0 min
19.02.2013 09:14 20,9 C -0,7 C 0,0 C 73 % 13 % 1009 hPa 0,0 l/m 2,3 km/h (1 Bft) 0 min
19.02.2013 09:17 21,0 C -0,7 C 0,1 C 73 % 16 % 1009 hPa 0,0 l/m 8,1 km/h (2 Bft) 0 min
19.02.2013 09:20 20,9 C -0,7 C 0,3 C 73 % 20 % 1009 hPa 0,0 l/m 7,4 km/h (2 Bft) 0 min
19.02.2013 09:23 21,0 C -0,7 C 0,5 C 73 % 24 % 1009 hPa 0,0 l/m 10,3 km/h (2 Bft) 0 min
19.02.2013 09:26 21,0 C -0,7 C 0,5 C 73 % 25 % 1009 hPa 0,0 l/m 8,4 km/h (2 Bft) 0 min
19.02.2013 09:29 21,0 C -0,7 C 0,6 C 73 % 27 % 1009 hPa 0,0 l/m 10,6 km/h (2 Bft) 0 min
19.02.2013 09:32 21,0 C -0,7 C 0,7 C 73 % 30 % 1009 hPa 0,0 l/m 10,6 km/h (2 Bft) 0 min
19.02.2013 09:35 21,0 C -0,7 C 0,6 C 73 % 33 % 1009 hPa 0,0 l/m 10,8 km/h (2 Bft) 0 min
19.02.2013 09:38 21,0 C -0,7 C 1,0 C 73 % 36 % 1009 hPa 0,0 l/m 8,5 km/h (2 Bft) 0 min
19.02.2013 09:41 21,0 C -0,7 C 1,1 C 73 % 34 % 1009 hPa 0,0 l/m 13,0 km/h (3 Bft) 0 min
19.02.2013 09:44 21,0 C -0,7 C 1,0 C 73 % 29 % 1009 hPa 0,0 l/m 14,2 km/h (3 Bft) 0 min
19.02.2013 09:47 21,0 C -0,7 C 1,0 C 73 % 28 % 1009 hPa 0,0 l/m 10,9 km/h (2 Bft) 0 min
19.02.2013 09:50 21,0 C -0,7 C 0,8 C 73 % 30 % 1009 hPa 0,0 l/m 16,0 km/h (3 Bft) 0 min
19.02.2013 09:53 21,0 C -0,7 C 0,7 C 73 % 28 % 1009 hPa 0,0 l/m 6,1 km/h (2 Bft) 0 min
19.02.2013 09:56 21,0 C -0,7 C 0,5 C 73 % 26 % 1009 hPa 0,0 l/m 11,6 km/h (2 Bft) 0 min
19.02.2013 09:59 21,0 C -0,7 C 0,4 C 73 % 27 % 1009 hPa 0,0 l/m 8,4 km/h (2 Bft) 0 min
19.02.2013 10:02 21,0 C -0,7 C 0,6 C 73 % 29 % 1009 hPa 0,0 l/m 11,2 km/h (2 Bft) 0 min
19.02.2013 10:05 21,1 C -0,7 C 0,7 C 73 % 30 % 1009 hPa 0,0 l/m 12,9 km/h (3 Bft) 0 min
19.02.2013 10:08 21,1 C -0,7 C 0,7 C 73 % 30 % 1009 hPa 0,0 l/m 13,6 km/h (3 Bft) 0 min
19.02.2013 10:11 21,1 C -0,7 C 0,6 C 73 % 29 % 1009 hPa 0,0 l/m 10,8 km/h (2 Bft) 0 min
19.02.2013 10:14 21,1 C -0,7 C 0,7 C 73 % 32 % 1009 hPa 0,0 l/m 10,7 km/h (2 Bft) 0 min
19.02.2013 10:17 21,1 C -0,7 C 1,0 C 73 % 36 % 1009 hPa 0,0 l/m 7,9 km/h (2 Bft) 0 min
19.02.2013 10:20 21,1 C -0,7 C 1,0 C 73 % 38 % 1009 hPa 0,0 l/m 10,3 km/h (2 Bft) 0 min
19.02.2013 10:23 21,1 C -0,7 C 1,4 C 73 % 38 % 1009 hPa 0,0 l/m 6,6 km/h (2 Bft) 0 min
19.02.2013 10:26 21,1 C -0,7 C 1,6 C 73 % 45 % 1008 hPa 0,0 l/m 7,6 km/h (2 Bft) 0 min
19.02.2013 10:29 21,1 C -0,7 C 2,1 C 73 % 47 % 1008 hPa 0,0 l/m 7,0 km/h (2 Bft) 0 min
19.02.2013 10:32 21,1 C -0,7 C 2,0 C 73 % 47 % 1008 hPa 0,0 l/m 1,6 km/h (1 Bft) 0 min
19.02.2013 10:35 21,2 C -0,7 C 1,9 C 73 % 44 % 1008 hPa 0,0 l/m 7,0 km/h (2 Bft) 0 min
19.02.2013 10:38 21,2 C -0,7 C 1,6 C 73 % 46 % 1008 hPa 0,0 l/m 15,3 km/h (3 Bft) 0 min
19.02.2013 10:41 21,1 C -0,7 C 1,4 C 73 % 44 % 1008 hPa 0,0 l/m 17,0 km/h (3 Bft) 0 min
19.02.2013 10:44 21,2 C -0,7 C 1,4 C 73 % 44 % 1008 hPa 0,0 l/m 14,8 km/h (3 Bft) 0 min
19.02.2013 10:47 21,2 C -0,7 C 1,2 C 73 % 41 % 1008 hPa 0,0 l/m 14,6 km/h (3 Bft) 0 min
19.02.2013 10:50 21,2 C -0,7 C 1,2 C 73 % 38 % 1008 hPa 0,0 l/m 16,5 km/h (3 Bft) 0 min
19.02.2013 10:53 21,2 C -0,7 C 1,4 C 73 % 36 % 1008 hPa 0,0 l/m 14,5 km/h (3 Bft) 0 min
19.02.2013 10:56 21,1 C -0,7 C 1,2 C 73 % 35 % 1008 hPa 0,0 l/m 12,2 km/h (2 Bft) 0 min
19.02.2013 10:59 21,2 C -0,7 C 1,2 C 73 % 35 % 1008 hPa 0,0 l/m 10,9 km/h (2 Bft) 0 min
19.02.2013 11:02 21,2 C -0,7 C 1,1 C 73 % 31 % 1008 hPa 0,0 l/m 3,0 km/h (1 Bft) 0 min
19.02.2013 11:05 21,2 C -0,7 C 1,1 C 73 % 31 % 1008 hPa 0,0 l/m 11,8 km/h (2 Bft) 0 min
19.02.2013 11:08 21,2 C -0,7 C 1,3 C 73 % 36 % 1008 hPa 0,0 l/m 11,8 km/h (2 Bft) 0 min
19.02.2013 11:11 21,2 C -0,7 C 1,5 C 73 % 35 % 1008 hPa 0,0 l/m 8,9 km/h (2 Bft) 0 min
19.02.2013 11:14 21,2 C -0,7 C 1,1 C 73 % 30 % 1008 hPa 0,0 l/m 14,8 km/h (3 Bft) 0 min
19.02.2013 11:17 21,2 C -0,7 C 1,0 C 73 % 29 % 1008 hPa 0,0 l/m 17,3 km/h (3 Bft) 0 min
19.02.2013 11:20 21,2 C -0,7 C 1,0 C 73 % 27 % 1008 hPa 0,0 l/m 13,6 km/h (3 Bft) 0 min
19.02.2013 11:23 21,2 C -0,7 C 1,0 C 73 % 29 % 1008 hPa 0,0 l/m 14,0 km/h (3 Bft) 0 min
19.02.2013 11:26 21,2 C -0,7 C 1,0 C 73 % 33 % 1008 hPa 0,0 l/m 10,9 km/h (2 Bft) 0 min
19.02.2013 11:29 21,2 C -0,7 C 1,2 C 73 % 33 % 1008 hPa 0,0 l/m 11,3 km/h (2 Bft) 0 min
19.02.2013 11:32 21,2 C -0,7 C 1,2 C 73 % 31 % 1008 hPa 0,0 l/m 14,6 km/h (3 Bft) 0 min
19.02.2013 11:35 21,2 C -0,7 C 1,2 C 73 % 31 % 1008 hPa 0,0 l/m 14,7 km/h (3 Bft) 0 min
19.02.2013 11:38 21,2 C -0,7 C 1,3 C 73 % 31 % 1008 hPa 0,0 l/m 13,8 km/h (3 Bft) 0 min
19.02.2013 11:41 21,2 C -0,7 C 1,7 C 73 % 40 % 1008 hPa 0,0 l/m 14,6 km/h (3 Bft) 0 min
19.02.2013 11:44 21,2 C -0,7 C 1,6 C 73 % 43 % 1008 hPa 0,0 l/m 4,4 km/h (1 Bft) 0 min
19.02.2013 11:47 21,2 C -0,7 C 1,4 C 73 % 40 % 1008 hPa 0,0 l/m 10,1 km/h (2 Bft) 0 min
19.02.2013 11:50 21,2 C -0,7 C 1,6 C 73 % 40 % 1008 hPa 0,0 l/m 13,4 km/h (3 Bft) 0 min
19.02.2013 11:53 21,2 C -0,7 C 1,1 C 73 % 35 % 1008 hPa 0,0 l/m 10,8 km/h (2 Bft) 0 min
19.02.2013 11:56 21,2 C -0,7 C 0,7 C 73 % 30 % 1008 hPa 0,0 l/m 16,3 km/h (3 Bft) 0 min
19.02.2013 11:59 21,2 C 0,3 C 0,8 C 82 % 29 % 1008 hPa 0,0 l/m 14,8 km/h (3 Bft) 0 min
19.02.2013 12:02 21,2 C 0,3 C 0,6 C 82 % 24 % 1008 hPa 0,0 l/m 13,2 km/h (3 Bft) 0 min
19.02.2013 12:05 21,2 C 0,3 C 0,7 C 82 % 27 % 1008 hPa 0,0 l/m 9,4 km/h (2 Bft) 0 min
19.02.2013 12:08 21,2 C 0,3 C 0,6 C 82 % 28 % 1008 hPa 0,0 l/m 15,4 km/h (3 Bft) 0 min
19.02.2013 12:11 21,2 C 0,3 C 0,8 C 82 % 30 % 1008 hPa 0,0 l/m 16,2 km/h (3 Bft) 0 min
19.02.2013 12:14 21,2 C 0,3 C 0,6 C 82 % 30 % 1008 hPa 0,0 l/m 14,5 km/h (3 Bft) 0 min
19.02.2013 12:17 21,2 C 0,3 C 0,5 C 82 % 26 % 1008 hPa 0,0 l/m 15,0 km/h (3 Bft) 0 min
19.02.2013 12:20 21,2 C 0,3 C 0,4 C 82 % 23 % 1008 hPa 0,0 l/m 13,8 km/h (3 Bft) 0 min
19.02.2013 12:23 21,2 C 0,3 C 0,4 C 82 % 24 % 1008 hPa 0,0 l/m 13,2 km/h (3 Bft) 0 min
19.02.2013 12:26 21,2 C 0,3 C 0,3 C 82 % 22 % 1008 hPa 0,0 l/m 14,2 km/h (3 Bft) 0 min
19.02.2013 12:29 21,2 C 0,3 C 0,3 C 82 % 19 % 1008 hPa 0,0 l/m 12,9 km/h (3 Bft) 0 min
19.02.2013 12:32 21,2 C 0,3 C 0,3 C 82 % 20 % 1008 hPa 0,0 l/m 12,7 km/h (3 Bft) 0 min
19.02.2013 12:35 21,2 C 0,3 C 0,4 C 82 % 22 % 1008 hPa 0,0 l/m 13,3 km/h (3 Bft) 0 min
19.02.2013 12:38 21,2 C 0,3 C 0,5 C 82 % 22 % 1008 hPa 0,0 l/m 12,1 km/h (2 Bft) 0 min
19.02.2013 12:41 21,2 C 0,3 C 0,5 C 82 % 28 % 1008 hPa 0,0 l/m 12,1 km/h (2 Bft) 0 min
19.02.2013 12:44 21,2 C 0,3 C 0,6 C 82 % 30 % 1007 hPa 0,0 l/m 10,9 km/h (2 Bft) 0 min
19.02.2013 12:47 21,2 C 0,3 C 0,7 C 82 % 30 % 1007 hPa 0,0 l/m 10,1 km/h (2 Bft) 0 min
19.02.2013 12:50 21,2 C 0,3 C 0,7 C 82 % 31 % 1007 hPa 0,0 l/m 13,0 km/h (3 Bft) 0 min
19.02.2013 12:53 21,2 C 0,3 C 0,8 C 82 % 31 % 1007 hPa 0,0 l/m 10,8 km/h (2 Bft) 0 min
19.02.2013 12:56 21,3 C 0,3 C 0,8 C 82 % 36 % 1007 hPa 0,0 l/m 12,5 km/h (3 Bft) 0 min
19.02.2013 12:59 21,3 C 0,3 C 1,0 C 82 % 37 % 1007 hPa 0,0 l/m 11,5 km/h (2 Bft) 0 min
19.02.2013 13:02 21,3 C 0,3 C 0,9 C 82 % 37 % 1007 hPa 0,0 l/m 9,3 km/h (2 Bft) 0 min
19.02.2013 13:05 21,3 C 0,3 C 1,0 C 82 % 42 % 1007 hPa 0,0 l/m 9,3 km/h (2 Bft) 0 min
19.02.2013 13:08 21,3 C 0,3 C 1,3 C 82 % 40 % 1007 hPa 0,0 l/m 11,1 km/h (2 Bft) 0 min
19.02.2013 13:11 21,2 C 0,3 C 1,2 C 82 % 45 % 1007 hPa 0,0 l/m 11,1 km/h (2 Bft) 0 min
19.02.2013 13:14 21,2 C 0,3 C 1,6 C 82 % 47 % 1007 hPa 0,0 l/m 13,2 km/h (3 Bft) 0 min
19.02.2013 13:17 21,2 C 0,3 C 1,4 C 87 % 44 % 1007 hPa 0,3 l/m 7,3 km/h (2 Bft) 0 min
19.02.2013 13:20 21,2 C 0,3 C 1,3 C 87 % 39 % 1007 hPa 0,0 l/m 8,1 km/h (2 Bft) 0 min
19.02.2013 13:23 21,2 C 0,3 C 1,2 C 87 % 35 % 1007 hPa 0,0 l/m 10,8 km/h (2 Bft) 0 min
19.02.2013 13:26 21,2 C 0,3 C 1,1 C 87 % 32 % 1007 hPa 0,0 l/m 10,3 km/h (2 Bft) 0 min
19.02.2013 13:29 21,2 C 0,3 C 1,0 C 87 % 30 % 1007 hPa 0,0 l/m 8,9 km/h (2 Bft) 0 min
19.02.2013 13:32 21,2 C 0,3 C 0,8 C 87 % 29 % 1007 hPa 0,0 l/m 11,5 km/h (2 Bft) 0 min
19.02.2013 13:35 21,3 C 0,3 C 0,7 C 87 % 25 % 1007 hPa 0,0 l/m 8,8 km/h (2 Bft) 0 min
19.02.2013 13:38 21,4 C 0,3 C 0,7 C 87 % 25 % 1007 hPa 0,0 l/m 10,3 km/h (2 Bft) 0 min
19.02.2013 13:41 21,4 C 0,3 C 0,7 C 87 % 24 % 1007 hPa 0,0 l/m 7,5 km/h (2 Bft) 0 min
19.02.2013 13:44 21,6 C 0,3 C 0,7 C 87 % 24 % 1007 hPa 0,0 l/m 10,0 km/h (2 Bft) 0 min
19.02.2013 13:47 21,6 C 0,3 C 0,6 C 87 % 22 % 1007 hPa 0,0 l/m 11,5 km/h (2 Bft) 0 min
19.02.2013 13:50 21,6 C 0,3 C 0,5 C 87 % 21 % 1007 hPa 0,0 l/m 13,0 km/h (3 Bft) 0 min
19.02.2013 13:53 21,6 C 0,3 C 0,5 C 87 % 20 % 1007 hPa 0,0 l/m 10,6 km/h (2 Bft) 0 min
19.02.2013 13:56 21,6 C 0,3 C 0,3 C 87 % 20 % 1007 hPa 0,0 l/m 10,3 km/h (2 Bft) 0 min
19.02.2013 13:59 21,6 C 0,3 C 0,3 C 87 % 19 % 1007 hPa 0,0 l/m 16,8 km/h (3 Bft) 0 min
19.02.2013 14:02 21,6 C 0,3 C 0,3 C 87 % 18 % 1007 hPa 0,0 l/m 13,5 km/h (3 Bft) 0 min
19.02.2013 14:05 21,6 C 0,3 C 0,2 C 87 % 19 % 1006 hPa 0,0 l/m 11,7 km/h (2 Bft) 0 min
19.02.2013 14:08 21,6 C 0,1 C 0,2 C 88 % 19 % 1006 hPa 0,0 l/m 10,5 km/h (2 Bft) 0 min
19.02.2013 14:11 21,6 C 0,1 C 0,3 C 89 % 18 % 1006 hPa 0,0 l/m 10,4 km/h (2 Bft) 0 min
19.02.2013 14:14 21,6 C 0,1 C 0,3 C 89 % 22 % 1006 hPa 0,0 l/m 8,7 km/h (2 Bft) 0 min
19.02.2013 14:17 21,6 C 0,1 C 0,3 C 89 % 20 % 1006 hPa 0,0 l/m 4,5 km/h (1 Bft) 0 min
19.02.2013 14:20 21,6 C 0,1 C 0,3 C 89 % 19 % 1006 hPa 0,0 l/m 11,0 km/h (2 Bft) 0 min
19.02.2013 14:23 21,6 C 0,1 C 0,3 C 90 % 20 % 1006 hPa 0,0 l/m 12,8 km/h (3 Bft) 0 min
19.02.2013 14:26 21,6 C 0,1 C 0,3 C 90 % 20 % 1006 hPa 0,0 l/m 12,0 km/h (2 Bft) 0 min
19.02.2013 14:29 21,6 C 0,1 C 0,3 C 90 % 18 % 1006 hPa 0,0 l/m 12,0 km/h (2 Bft) 0 min
19.02.2013 14:32 21,7 C 0,1 C 0,2 C 90 % 17 % 1006 hPa 0,0 l/m 12,3 km/h (3 Bft) 0 min
19.02.2013 14:35 21,6 C 0,1 C 0,2 C 90 % 17 % 1006 hPa 0,0 l/m 10,5 km/h (2 Bft) 0 min
19.02.2013 14:38 21,6 C 0,1 C 0,3 C 90 % 17 % 1006 hPa 0,0 l/m 20,3 km/h (4 Bft) 0 min
19.02.2013 14:41 21,6 C 0,1 C 0,3 C 90 % 24 % 1006 hPa 0,0 l/m 13,8 km/h (3 Bft) 0 min
19.02.2013 14:44 21,6 C 0,0 C 0,3 C 91 % 24 % 1006 hPa 0,0 l/m 13,4 km/h (3 Bft) 0 min
19.02.2013 14:47 21,6 C 0,1 C 0,3 C 91 % 23 % 1006 hPa 0,0 l/m 16,0 km/h (3 Bft) 0 min
19.02.2013 14:50 21,6 C 0,1 C 0,4 C 91 % 24 % 1006 hPa 0,0 l/m 13,4 km/h (3 Bft) 0 min
19.02.2013 14:53 21,6 C 0,1 C 0,4 C 91 % 23 % 1006 hPa 0,0 l/m 13,4 km/h (3 Bft) 0 min
19.02.2013 14:56 21,6 C 0,1 C 0,4 C 92 % 23 % 1006 hPa 0,0 l/m 14,2 km/h (3 Bft) 0 min
19.02.2013 14:59 21,2 C 0,1 C 0,3 C 92 % 22 % 1006 hPa 0,0 l/m 15,4 km/h (3 Bft) 0 min
19.02.2013 15:02 21,2 C 0,1 C 0,3 C 92 % 21 % 1006 hPa 0,0 l/m 15,4 km/h (3 Bft) 0 min
19.02.2013 15:05 21,2 C 0,1 C 0,3 C 92 % 21 % 1006 hPa 0,0 l/m 14,1 km/h (3 Bft) 0 min
19.02.2013 15:08 21,3 C 0,1 C 0,2 C 92 % 16 % 1006 hPa 0,0 l/m 14,1 km/h (3 Bft) 0 min
19.02.2013 15:11 21,4 C 0,0 C 0,2 C 92 % 15 % 1006 hPa 0,0 l/m 14,3 km/h (3 Bft) 0 min
19.02.2013 15:14 21,4 C 0,0 C 0,1 C 92 % 13 % 1006 hPa 0,0 l/m 15,0 km/h (3 Bft) 0 min
19.02.2013 15:17 21,3 C 0,0 C 0,1 C 92 % 12 % 1006 hPa 0,0 l/m 16,3 km/h (3 Bft) 0 min
19.02.2013 15:20 21,2 C 0,0 C 0,2 C 92 % 12 % 1006 hPa 0,0 l/m 10,8 km/h (2 Bft) 0 min
19.02.2013 15:23 21,0 C 0,0 C 0,1 C 92 % 11 % 1006 hPa 0,0 l/m 13,8 km/h (3 Bft) 0 min
19.02.2013 15:26 21,0 C 0,0 C 0,1 C 93 % 11 % 1006 hPa 0,0 l/m 14,7 km/h (3 Bft) 0 min
19.02.2013 15:29 21,0 C 0,0 C 0,1 C 93 % 10 % 1006 hPa 0,0 l/m 15,7 km/h (3 Bft) 0 min
19.02.2013 15:32 21,0 C 0,0 C 0,1 C 93 % 10 % 1006 hPa 0,0 l/m 15,5 km/h (3 Bft) 0 min
19.02.2013 15:35 21,0 C 0,0 C 0,0 C 93 % 8 % 1006 hPa 0,0 l/m 10,4 km/h (2 Bft) 0 min
19.02.2013 15:38 21,0 C 0,0 C 0,0 C 93 % 8 % 1006 hPa 0,0 l/m 10,4 km/h (2 Bft) 0 min
19.02.2013 15:41 21,0 C 0,0 C 0,1 C 93 % 8 % 1006 hPa 0,0 l/m 10,4 km/h (2 Bft) 0 min
19.02.2013 15:44 21,0 C 0,0 C 0,1 C 94 % 9 % 1006 hPa 0,0 l/m 14,2 km/h (3 Bft) 0 min
19.02.2013 15:47 21,0 C 0,0 C 0,1 C 94 % 10 % 1006 hPa 0,0 l/m 15,8 km/h (3 Bft) 0 min
19.02.2013 15:50 20,8 C 0,0 C 0,0 C 94 % 9 % 1006 hPa 0,3 l/m 10,5 km/h (2 Bft) 0 min
19.02.2013 15:53 20,6 C 0,0 C 0,0 C 94 % 7 % 1006 hPa 0,0 l/m 15,8 km/h (3 Bft) 0 min
19.02.2013 15:56 20,6 C 0,0 C 0,0 C 94 % 9 % 1006 hPa 0,0 l/m 14,1 km/h (3 Bft) 0 min
19.02.2013 15:59 20,6 C 0,0 C 0,0 C 94 % 8 % 1006 hPa 0,0 l/m 9,6 km/h (2 Bft) 0 min
19.02.2013 16:02 20,6 C 0,0 C 0,0 C 94 % 9 % 1006 hPa 0,0 l/m 11,5 km/h (2 Bft) 0 min
19.02.2013 16:05 20,6 C 0,0 C 0,0 C 95 % 8 % 1006 hPa 0,0 l/m 11,5 km/h (2 Bft) 0 min
19.02.2013 16:08 21,0 C 0,0 C 0,0 C 95 % 8 % 1006 hPa 0,0 l/m 8,8 km/h (2 Bft) 0 min
19.02.2013 16:11 21,0 C 0,0 C 0,0 C 95 % 8 % 1006 hPa 0,0 l/m 14,3 km/h (3 Bft) 0 min
19.02.2013 16:14 20,1 C 0,0 C 0,0 C 95 % 7 % 1006 hPa 0,0 l/m 13,5 km/h (3 Bft) 0 min
19.02.2013 16:17 19,2 C 0,0 C 0,0 C 95 % 7 % 1006 hPa 0,0 l/m 12,8 km/h (3 Bft) 0 min
19.02.2013 16:20 19,4 C 0,0 C 0,0 C 95 % 6 % 1006 hPa 0,0 l/m 10,9 km/h (2 Bft) 0 min
19.02.2013 16:23 19,4 C 0,0 C 0,0 C 95 % 6 % 1006 hPa 0,0 l/m 7,0 km/h (2 Bft) 0 min
19.02.2013 16:26 20,0 C 0,0 C -0,1 C 95 % 5 % 1006 hPa 0,0 l/m 10,5 km/h (2 Bft) 0 min
19.02.2013 16:29 20,3 C 0,0 C 0,0 C 95 % 5 % 1006 hPa 0,0 l/m 13,1 km/h (3 Bft) 0 min
19.02.2013 16:32 20,5 C 0,0 C 0,0 C 95 % 5 % 1006 hPa 0,0 l/m 9,3 km/h (2 Bft) 0 min
19.02.2013 16:35 20,7 C 0,0 C -0,1 C 95 % 4 % 1006 hPa 0,0 l/m 11,0 km/h (2 Bft) 0 min
19.02.2013 16:38 20,8 C 0,0 C 0,0 C 95 % 4 % 1006 hPa 0,0 l/m 8,4 km/h (2 Bft) 0 min
19.02.2013 16:41 21,2 C 0,0 C 0,0 C 95 % 4 % 1006 hPa 0,0 l/m 10,4 km/h (2 Bft) 0 min
19.02.2013 16:44 21,3 C 0,0 C 0,0 C 95 % 5 % 1006 hPa 0,0 l/m 9,9 km/h (2 Bft) 0 min
19.02.2013 16:47 21,4 C 0,0 C 0,0 C 96 % 5 % 1006 hPa 0,0 l/m 8,7 km/h (2 Bft) 0 min
19.02.2013 16:50 21,5 C 0,0 C 0,0 C 96 % 5 % 1006 hPa 0,0 l/m 8,7 km/h (2 Bft) 0 min
19.02.2013 16:53 21,6 C 0,0 C -0,1 C 96 % 3 % 1006 hPa 0,3 l/m 9,4 km/h (2 Bft) 0 min
19.02.2013 16:56 21,8 C 0,0 C -0,1 C 96 % 3 % 1006 hPa 0,0 l/m 9,4 km/h (2 Bft) 0 min
19.02.2013 16:59 21,8 C 0,0 C -0,1 C 96 % 2 % 1006 hPa 0,0 l/m 10,3 km/h (2 Bft) 0 min
19.02.2013 17:02 21,9 C 0,0 C -0,1 C 96 % 2 % 1006 hPa 0,0 l/m 11,5 km/h (2 Bft) 0 min
19.02.2013 17:05 21,9 C 0,0 C -0,1 C 96 % 2 % 1006 hPa 0,0 l/m 9,3 km/h (2 Bft) 0 min
19.02.2013 17:08 22,0 C 0,0 C -0,1 C 97 % 2 % 1006 hPa 0,0 l/m 12,1 km/h (2 Bft) 0 min
19.02.2013 17:11 21,8 C 0,0 C -0,1 C 97 % 1 % 1006 hPa 0,0 l/m 15,8 km/h (3 Bft) 0 min
19.02.2013 17:14 21,8 C 0,0 C -0,1 C 97 % 1 % 1006 hPa 0,0 l/m 9,8 km/h (2 Bft) 0 min
19.02.2013 17:17 21,8 C 0,0 C -0,1 C 97 % 1 % 1006 hPa 0,0 l/m 13,6 km/h (3 Bft) 0 min
19.02.2013 17:20 21,8 C 0,0 C 0,0 C 96 % 1 % 1006 hPa 0,0 l/m 13,8 km/h (3 Bft) 0 min
19.02.2013 17:23 21,8 C 0,0 C -0,1 C 96 % 1 % 1006 hPa 0,0 l/m 14,7 km/h (3 Bft) 0 min
19.02.2013 17:26 21,9 C 0,0 C -0,1 C 96 % 0 % 1006 hPa 0,0 l/m 12,6 km/h (3 Bft) 0 min
19.02.2013 17:29 21,9 C 0,0 C -0,1 C 96 % 0 % 1006 hPa 0,3 l/m 13,4 km/h (3 Bft) 0 min
19.02.2013 17:32 22,0 C 0,0 C -0,1 C 96 % 0 % 1006 hPa 0,0 l/m 10,4 km/h (2 Bft) 0 min
19.02.2013 17:35 22,0 C 0,0 C -0,1 C 96 % 0 % 1006 hPa 0,0 l/m 16,7 km/h (3 Bft) 0 min
19.02.2013 17:38 22,0 C 0,0 C -0,1 C 96 % 0 % 1006 hPa 0,0 l/m 15,3 km/h (3 Bft) 0 min
19.02.2013 17:41 22,0 C 0,0 C -0,1 C 96 % 0 % 1006 hPa 0,0 l/m 16,1 km/h (3 Bft) 0 min
19.02.2013 17:44 22,0 C 0,0 C -0,1 C 96 % 0 % 1006 hPa 0,0 l/m 13,2 km/h (3 Bft) 0 min
19.02.2013 17:47 22,0 C 0,0 C -0,1 C 96 % 0 % 1006 hPa 0,0 l/m 13,2 km/h (3 Bft) 0 min
19.02.2013 17:50 22,0 C 0,0 C 0,0 C 96 % 0 % 1006 hPa 0,0 l/m 14,8 km/h (3 Bft) 0 min
19.02.2013 17:53 21,9 C 0,1 C -0,1 C 95 % 0 % 1006 hPa 0,0 l/m 15,3 km/h (3 Bft) 0 min
19.02.2013 17:56 21,9 C 0,1 C -0,1 C 95 % 0 % 1006 hPa 0,0 l/m 15,3 km/h (3 Bft) 0 min
19.02.2013 17:59 21,7 C 0,1 C -0,1 C 95 % 0 % 1006 hPa 0,0 l/m 14,8 km/h (3 Bft) 0 min
19.02.2013 18:02 21,6 C 0,1 C 0,0 C 94 % 0 % 1006 hPa 0,0 l/m 16,8 km/h (3 Bft) 0 min
19.02.2013 18:05 21,5 C 0,1 C 0,0 C 94 % 0 % 1006 hPa 0,0 l/m 16,8 km/h (3 Bft) 0 min
19.02.2013 18:08 21,5 C 0,1 C 0,0 C 94 % 0 % 1006 hPa 0,0 l/m 16,8 km/h (3 Bft) 0 min
19.02.2013 18:11 21,3 C 0,1 C 0,0 C 94 % 0 % 1006 hPa 0,0 l/m 16,2 km/h (3 Bft) 0 min
19.02.2013 18:14 21,2 C 0,1 C -0,1 C 94 % 0 % 1006 hPa 0,0 l/m 14,6 km/h (3 Bft) 0 min
19.02.2013 18:17 21,2 C 0,1 C -0,1 C 94 % 0 % 1006 hPa 0,0 l/m 12,9 km/h (3 Bft) 0 min
19.02.2013 18:20 21,3 C 0,1 C -0,1 C 94 % 0 % 1006 hPa 0,0 l/m 11,3 km/h (2 Bft) 0 min
19.02.2013 18:23 21,5 C 0,1 C -0,1 C 95 % 0 % 1006 hPa 0,0 l/m 11,6 km/h (2 Bft) 0 min
19.02.2013 18:26 21,6 C 0,1 C -0,1 C 95 % 0 % 1006 hPa 0,0 l/m 11,6 km/h (2 Bft) 0 min
19.02.2013 18:29 21,6 C 0,0 C -0,1 C 95 % 0 % 1006 hPa 0,0 l/m 13,2 km/h (3 Bft) 0 min
19.02.2013 18:32 21,6 C 0,0 C -0,1 C 95 % 0 % 1006 hPa 0,0 l/m 9,7 km/h (2 Bft) 0 min
19.02.2013 18:35 21,7 C 0,1 C -0,1 C 95 % 0 % 1006 hPa 0,0 l/m 11,8 km/h (2 Bft) 0 min
19.02.2013 18:38 21,8 C 0,1 C -0,1 C 95 % 0 % 1006 hPa 0,0 l/m 11,8 km/h (2 Bft) 0 min
19.02.2013 18:41 21,8 C 0,1 C -0,1 C 95 % 0 % 1006 hPa 0,0 l/m 11,5 km/h (2 Bft) 0 min
19.02.2013 18:44 21,9 C 0,0 C -0,1 C 95 % 0 % 1006 hPa 0,3 l/m 10,3 km/h (2 Bft) 0 min
19.02.2013 18:47 21,8 C 0,0 C -0,1 C 95 % 0 % 1006 hPa 0,0 l/m 9,7 km/h (2 Bft) 0 min
19.02.2013 18:50 21,9 C 0,0 C -0,1 C 96 % 0 % 1006 hPa 0,0 l/m 12,4 km/h (3 Bft) 0 min
19.02.2013 18:53 22,0 C 0,0 C -0,1 C 96 % 0 % 1006 hPa 0,0 l/m 12,6 km/h (3 Bft) 0 min
19.02.2013 18:56 22,0 C 0,0 C -0,1 C 96 % 0 % 1006 hPa 0,0 l/m 12,6 km/h (3 Bft) 0 min
19.02.2013 18:59 22,1 C 0,0 C -0,1 C 96 % 0 % 1006 hPa 0,0 l/m 12,7 km/h (3 Bft) 0 min
19.02.2013 19:02 22,1 C 0,1 C -0,1 C 96 % 0 % 1006 hPa 0,0 l/m 15,5 km/h (3 Bft) 0 min
19.02.2013 19:05 22,1 C 0,1 C -0,2 C 96 % 0 % 1006 hPa 0,0 l/m 12,6 km/h (3 Bft) 0 min
19.02.2013 19:08 22,1 C 0,1 C -0,1 C 96 % 0 % 1006 hPa 0,0 l/m 12,5 km/h (3 Bft) 0 min
19.02.2013 19:11 22,2 C 0,0 C -0,2 C 96 % 0 % 1006 hPa 0,0 l/m 10,1 km/h (2 Bft) 0 min
19.02.2013 19:14 22,1 C 0,0 C -0,2 C 96 % 0 % 1006 hPa 0,0 l/m 14,8 km/h (3 Bft) 0 min
19.02.2013 19:17 22,2 C 0,0 C -0,2 C 96 % 0 % 1006 hPa 0,0 l/m 10,5 km/h (2 Bft) 0 min
19.02.2013 19:20 22,2 C 0,0 C -0,2 C 97 % 0 % 1006 hPa 0,0 l/m 11,6 km/h (2 Bft) 0 min
19.02.2013 19:23 22,2 C 0,0 C -0,2 C 97 % 0 % 1006 hPa 0,0 l/m 12,3 km/h (3 Bft) 0 min
19.02.2013 19:26 22,2 C 0,0 C -0,2 C 97 % 0 % 1006 hPa 0,0 l/m 12,4 km/h (3 Bft) 0 min
19.02.2013 19:29 22,2 C 0,0 C -0,2 C 97 % 0 % 1006 hPa 0,0 l/m 16,2 km/h (3 Bft) 0 min
19.02.2013 19:32 22,2 C 0,0 C -0,2 C 97 % 0 % 1006 hPa 0,0 l/m 13,1 km/h (3 Bft) 0 min
19.02.2013 19:35 22,2 C 0,0 C -0,2 C 97 % 0 % 1006 hPa 0,0 l/m 11,5 km/h (2 Bft) 0 min
19.02.2013 19:38 22,2 C 0,0 C -0,2 C 97 % 0 % 1006 hPa 0,0 l/m 10,5 km/h (2 Bft) 0 min
19.02.2013 19:41 22,2 C 0,0 C -0,2 C 97 % 0 % 1006 hPa 0,0 l/m 11,8 km/h (2 Bft) 0 min
19.02.2013 19:44 22,2 C 0,0 C -0,2 C 97 % 0 % 1006 hPa 0,0 l/m 13,8 km/h (3 Bft) 0 min
19.02.2013 19:47 22,2 C 0,0 C -0,2 C 97 % 0 % 1006 hPa 0,0 l/m 10,8 km/h (2 Bft) 0 min
19.02.2013 19:50 22,2 C 0,0 C -0,2 C 97 % 0 % 1006 hPa 0,0 l/m 12,8 km/h (3 Bft) 0 min
19.02.2013 19:53 22,2 C 0,0 C -0,2 C 97 % 0 % 1006 hPa 0,0 l/m 12,9 km/h (3 Bft) 0 min
19.02.2013 19:56 22,2 C 0,0 C -0,2 C 97 % 0 % 1006 hPa 0,0 l/m 12,5 km/h (3 Bft) 0 min
19.02.2013 19:59 22,2 C 0,0 C -0,2 C 97 % 0 % 1006 hPa 0,0 l/m 12,3 km/h (3 Bft) 0 min
19.02.2013 20:02 22,2 C 0,0 C -0,2 C 97 % 0 % 1006 hPa 0,0 l/m 12,8 km/h (3 Bft) 0 min
19.02.2013 20:05 22,2 C -0,1 C -0,2 C 98 % 0 % 1006 hPa 0,0 l/m 14,9 km/h (3 Bft) 0 min
19.02.2013 20:08 22,1 C -0,1 C -0,2 C 98 % 0 % 1006 hPa 0,3 l/m 9,6 km/h (2 Bft) 0 min
19.02.2013 20:11 22,1 C -0,1 C -0,3 C 98 % 0 % 1006 hPa 0,0 l/m 14,5 km/h (3 Bft) 0 min
19.02.2013 20:14 22,1 C -0,1 C -0,3 C 98 % 0 % 1006 hPa 0,0 l/m 11,8 km/h (2 Bft) 0 min
19.02.2013 20:17 22,1 C -0,1 C -0,3 C 98 % 0 % 1006 hPa 0,0 l/m 15,8 km/h (3 Bft) 0 min
19.02.2013 20:20 22,1 C -0,1 C -0,3 C 98 % 0 % 1006 hPa 0,0 l/m 12,3 km/h (3 Bft) 0 min
19.02.2013 20:23 22,0 C -0,1 C -0,3 C 98 % 0 % 1006 hPa 0,0 l/m 11,8 km/h (2 Bft) 0 min
19.02.2013 20:26 22,0 C -0,1 C -0,3 C 98 % 0 % 1006 hPa 0,0 l/m 17,1 km/h (3 Bft) 0 min
19.02.2013 20:29 22,0 C -0,1 C -0,3 C 98 % 0 % 1006 hPa 0,0 l/m 14,6 km/h (3 Bft) 0 min
19.02.2013 20:32 22,0 C -0,1 C -0,3 C 98 % 0 % 1006 hPa 0,0 l/m 12,1 km/h (2 Bft) 0 min
19.02.2013 20:35 22,0 C -0,1 C -0,3 C 98 % 0 % 1006 hPa 0,0 l/m 12,1 km/h (2 Bft) 0 min
19.02.2013 20:38 22,0 C -0,1 C -0,3 C 98 % 0 % 1006 hPa 0,0 l/m 10,6 km/h (2 Bft) 0 min
19.02.2013 20:41 22,0 C -0,1 C -0,3 C 98 % 0 % 1006 hPa 0,0 l/m 14,5 km/h (3 Bft) 0 min
19.02.2013 20:44 22,0 C -0,1 C -0,3 C 98 % 0 % 1006 hPa 0,0 l/m 11,6 km/h (2 Bft) 0 min
19.02.2013 20:47 22,0 C -0,1 C -0,3 C 98 % 0 % 1006 hPa 0,0 l/m 12,5 km/h (3 Bft) 0 min
19.02.2013 20:50 22,0 C -0,1 C -0,3 C 98 % 0 % 1006 hPa 0,0 l/m 13,2 km/h (3 Bft) 0 min
19.02.2013 20:53 22,0 C -0,1 C -0,3 C 98 % 0 % 1006 hPa 0,0 l/m 11,3 km/h (2 Bft) 0 min
19.02.2013 20:56 22,0 C -0,1 C -0,3 C 98 % 0 % 1007 hPa 0,0 l/m 11,2 km/h (2 Bft) 0 min
19.02.2013 20:59 22,0 C -0,1 C -0,3 C 98 % 0 % 1007 hPa 0,0 l/m 13,8 km/h (3 Bft) 0 min
19.02.2013 21:02 22,0 C -0,1 C -0,3 C 98 % 0 % 1007 hPa 0,0 l/m 13,9 km/h (3 Bft) 0 min
19.02.2013 21:05 22,0 C -0,1 C -0,3 C 98 % 0 % 1007 hPa 0,0 l/m 12,6 km/h (3 Bft) 0 min
19.02.2013 21:08 22,0 C -0,1 C -0,3 C 98 % 0 % 1007 hPa 0,0 l/m 12,6 km/h (3 Bft) 0 min
19.02.2013 21:11 22,0 C -0,1 C -0,3 C 98 % 0 % 1007 hPa 0,0 l/m 13,0 km/h (3 Bft) 0 min
19.02.2013 21:14 21,9 C -0,1 C -0,3 C 98 % 0 % 1007 hPa 0,0 l/m 14,2 km/h (3 Bft) 0 min
19.02.2013 21:17 21,9 C -0,1 C -0,3 C 98 % 0 % 1007 hPa 0,0 l/m 11,7 km/h (2 Bft) 0 min
19.02.2013 21:20 21,9 C -0,1 C -0,4 C 98 % 0 % 1007 hPa 0,0 l/m 13,6 km/h (3 Bft) 0 min
19.02.2013 21:23 21,9 C -0,1 C -0,3 C 98 % 0 % 1007 hPa 0,0 l/m 12,0 km/h (2 Bft) 0 min
19.02.2013 21:26 21,9 C -0,2 C -0,4 C 98 % 0 % 1007 hPa 0,0 l/m 12,3 km/h (3 Bft) 0 min
19.02.2013 21:29 21,9 C -0,2 C -0,3 C 98 % 0 % 1007 hPa 0,0 l/m 11,0 km/h (2 Bft) 0 min
19.02.2013 21:32 21,9 C -0,2 C -0,3 C 98 % 0 % 1007 hPa 0,0 l/m 11,1 km/h (2 Bft) 0 min
19.02.2013 21:35 21,9 C -0,2 C -0,4 C 98 % 0 % 1007 hPa 0,0 l/m 11,6 km/h (2 Bft) 0 min
19.02.2013 21:38 21,9 C -0,2 C -0,4 C 98 % 0 % 1007 hPa 0,0 l/m 10,1 km/h (2 Bft) 0 min
19.02.2013 21:41 21,9 C -0,2 C -0,3 C 98 % 0 % 1007 hPa 0,0 l/m 12,1 km/h (2 Bft) 0 min
19.02.2013 21:44 21,9 C -0,2 C -0,3 C 98 % 0 % 1007 hPa 0,0 l/m 12,1 km/h (2 Bft) 0 min
19.02.2013 21:47 21,9 C -0,2 C -0,3 C 98 % 0 % 1007 hPa 0,0 l/m 12,0 km/h (2 Bft) 0 min
19.02.2013 21:50 21,9 C -0,2 C -0,3 C 98 % 0 % 1007 hPa 0,0 l/m 13,8 km/h (3 Bft) 0 min
19.02.2013 21:53 21,9 C -0,2 C -0,3 C 98 % 0 % 1007 hPa 0,0 l/m 11,3 km/h (2 Bft) 0 min
19.02.2013 21:56 21,9 C -0,2 C -0,3 C 98 % 0 % 1007 hPa 0,0 l/m 13,6 km/h (3 Bft) 0 min
19.02.2013 21:59 21,9 C -0,2 C -0,3 C 98 % 0 % 1007 hPa 0,0 l/m 13,6 km/h (3 Bft) 0 min
19.02.2013 22:02 21,9 C -0,2 C -0,3 C 98 % 0 % 1007 hPa 0,0 l/m 12,1 km/h (2 Bft) 0 min
19.02.2013 22:05 21,9 C -0,2 C -0,3 C 98 % 0 % 1007 hPa 0,0 l/m 10,2 km/h (2 Bft) 0 min
19.02.2013 22:08 21,9 C -0,2 C -0,3 C 98 % 0 % 1007 hPa 0,0 l/m 12,1 km/h (2 Bft) 0 min
19.02.2013 22:11 21,9 C -0,2 C -0,3 C 98 % 0 % 1007 hPa 0,0 l/m 13,3 km/h (3 Bft) 0 min
19.02.2013 22:14 21,8 C -0,2 C -0,4 C 98 % 0 % 1007 hPa 0,0 l/m 10,5 km/h (2 Bft) 0 min
19.02.2013 22:17 21,8 C -0,2 C -0,4 C 98 % 0 % 1007 hPa 0,0 l/m 9,1 km/h (2 Bft) 0 min
19.02.2013 22:20 21,8 C -0,2 C -0,3 C 98 % 0 % 1007 hPa 0,0 l/m 12,3 km/h (3 Bft) 0 min
19.02.2013 22:23 21,8 C -0,2 C -0,3 C 98 % 0 % 1007 hPa 0,0 l/m 10,4 km/h (2 Bft) 0 min
19.02.2013 22:26 21,8 C -0,2 C -0,3 C 98 % 0 % 1007 hPa 0,0 l/m 11,4 km/h (2 Bft) 0 min
19.02.2013 22:29 21,8 C -0,2 C -0,3 C 98 % 0 % 1007 hPa 0,0 l/m 11,6 km/h (2 Bft) 0 min
19.02.2013 22:32 21,8 C -0,2 C -0,3 C 98 % 0 % 1007 hPa 0,0 l/m 11,4 km/h (2 Bft) 0 min
19.02.2013 22:35 21,7 C -0,2 C -0,3 C 98 % 0 % 1007 hPa 0,0 l/m 10,1 km/h (2 Bft) 0 min
19.02.2013 22:38 21,7 C -0,2 C -0,3 C 98 % 0 % 1007 hPa 0,0 l/m 10,5 km/h (2 Bft) 0 min
19.02.2013 22:41 21,7 C -0,3 C -0,3 C 98 % 0 % 1007 hPa 0,0 l/m 13,0 km/h (3 Bft) 0 min
19.02.2013 22:44 21,6 C -0,3 C -0,4 C 98 % 0 % 1007 hPa 0,0 l/m 13,0 km/h (3 Bft) 0 min
19.02.2013 22:47 21,6 C -0,3 C -0,4 C 98 % 0 % 1007 hPa 0,0 l/m 11,0 km/h (2 Bft) 0 min
19.02.2013 22:50 21,6 C -0,3 C -0,3 C 98 % 0 % 1007 hPa 0,0 l/m 11,0 km/h (2 Bft) 0 min
19.02.2013 22:53 21,6 C -0,3 C -0,3 C 98 % 0 % 1007 hPa 0,0 l/m 10,5 km/h (2 Bft) 0 min
19.02.2013 22:56 21,6 C -0,3 C -0,3 C 98 % 0 % 1007 hPa 0,0 l/m 11,6 km/h (2 Bft) 0 min
19.02.2013 22:59 21,6 C -0,3 C -0,3 C 98 % 0 % 1007 hPa 0,0 l/m 9,1 km/h (2 Bft) 0 min
19.02.2013 23:02 21,6 C -0,3 C -0,3 C 98 % 0 % 1007 hPa 0,0 l/m 7,7 km/h (2 Bft) 0 min
19.02.2013 23:05 21,6 C -0,3 C -0,3 C 98 % 0 % 1007 hPa 0,0 l/m 9,3 km/h (2 Bft) 0 min
19.02.2013 23:08 21,6 C -0,3 C -0,3 C 98 % 0 % 1007 hPa 0,3 l/m 8,7 km/h (2 Bft) 0 min
19.02.2013 23:11 21,6 C -0,3 C -0,3 C 98 % 0 % 1007 hPa 0,0 l/m 8,6 km/h (2 Bft) 0 min
19.02.2013 23:14 21,5 C -0,3 C -0,3 C 98 % 0 % 1007 hPa 0,0 l/m 9,8 km/h (2 Bft) 0 min
19.02.2013 23:17 21,5 C -0,3 C -0,3 C 98 % 0 % 1007 hPa 0,0 l/m 8,8 km/h (2 Bft) 0 min
19.02.2013 23:20 21,5 C -0,3 C -0,3 C 98 % 0 % 1007 hPa 0,0 l/m 8,9 km/h (2 Bft) 0 min
19.02.2013 23:23 21,5 C -0,3 C -0,3 C 98 % 0 % 1007 hPa 0,0 l/m 10,0 km/h (2 Bft) 0 min
19.02.2013 23:26 21,5 C -0,3 C -0,3 C 98 % 0 % 1007 hPa 0,0 l/m 9,2 km/h (2 Bft) 0 min
19.02.2013 23:29 21,5 C -0,3 C -0,3 C 98 % 0 % 1007 hPa 0,0 l/m 10,9 km/h (2 Bft) 0 min
19.02.2013 23:32 21,5 C -0,3 C -0,3 C 98 % 0 % 1007 hPa 0,0 l/m 9,5 km/h (2 Bft) 0 min
19.02.2013 23:35 21,5 C -0,3 C -0,3 C 98 % 0 % 1007 hPa 0,0 l/m 8,9 km/h (2 Bft) 0 min
19.02.2013 23:38 21,4 C -0,3 C -0,3 C 98 % 0 % 1007 hPa 0,0 l/m 9,2 km/h (2 Bft) 0 min
19.02.2013 23:41 21,4 C -0,3 C -0,3 C 98 % 0 % 1007 hPa 0,0 l/m 13,0 km/h (3 Bft) 0 min
19.02.2013 23:44 21,4 C -0,3 C -0,3 C 98 % 0 % 1007 hPa 0,0 l/m 7,4 km/h (2 Bft) 0 min
19.02.2013 23:47 21,4 C -0,3 C -0,3 C 98 % 0 % 1007 hPa 0,0 l/m 8,1 km/h (2 Bft) 0 min
19.02.2013 23:50 21,4 C -0,3 C -0,3 C 98 % 0 % 1007 hPa 0,0 l/m 8,1 km/h (2 Bft) 0 min
19.02.2013 23:53 21,4 C -0,3 C -0,3 C 98 % 0 % 1007 hPa 0,0 l/m 9,6 km/h (2 Bft) 0 min
19.02.2013 23:56 21,4 C -0,3 C -0,3 C 98 % 0 % 1007 hPa 0,0 l/m 6,1 km/h (2 Bft) 0 min
19.02.2013 23:59 21,4 C -0,3 C -0,3 C 98 % 0 % 1007 hPa 0,0 l/m 7,6 km/h (2 Bft) 0 min
_ Min-Zeit 07:08 03:38 01:45 05:11 - 14:05 - 00:00 -
Minimum _ 17,0 C -0,9 C -1,3 C 73 % - 1006 hPa - 0,0 km/h (0 Bft) -
_ Max-Zeit 19:11 11:59 10:29 01:27 10:29 00:00 13:17 14:38 00:00
Maximum _ 22,2 C 0,3 C 2,1 C 100 % 47 % 1012 hPa 0,3 l/m 20,3 km/h
W-NW (4 Bft)
0 min
Durchschnitt _ 21,2 C -0,3 C -0,2 C 86 % #0 min. 1008 hPa #2,4 l/m 8,8 km/h (2 Bft) #0 min.